Snowfall_Accumulation
0.0 0.0 0.0 0.0 0.0 0.0 0.1 0.2 0.0 0.0 0.0 0.0 0.0 0.0 0.0 0.0 0.0 0.0 0.0 0.0 0.0 0.0 0.0 0.0 0.0 0.0 0.0 0.0 0.0 0.0 0.0 0.0 0.0 0.0 0.0 0.0 0.0 0.0 0.0 0.0 0.0 0.0 0.0 0.0
0.0 0.0 0.0 0.0 0.0 0.0 0.0 0.0 0.2 0.0 0.0 0.0 0.0 0.0 0.0 0.0 0.0 0.0 0.0 0.0 0.0 0.0 0.0 0.0 0.0 0.0 0.0 0.0 0.0 0.0 0.0 0.0 0.0 0.0 0.0 0.0 0.0 0.0 0.0 0.0 0.0 0.0 0.0 0.0
0.0 0.0 0.0 0.0 0.0 0.0 0.0 0.0 0.0 0.0 0.0 0.0 0.0 0.0 0.0 0.0 0.0 0.0 0.0 0.0 0.0 0.0 0.0 0.0 0.0 0.0 0.0 0.0 0.0 0.0 0.0 0.0 0.0 0.0 0.0 0.0 0.0 0.0 0.0 0.0 0.0 0.0 0.0 0.0
0.0 0.0 0.0 0.0 0.0 0.0 2.6 0.0 0.0 0.0 0.0 1.1 0.0 3.6 0.1 0.0 0.0 0.0 0.0 0.0 0.0 0.0 0.0 0.0 0.0 0.0 0.0 0.0 0.0 0.0 0.0 0.0 0.0 0.0 0.0 0.0 0.0 0.0 0.0 0.0 0.0 0.0 0.0 0.0
0.1 0.0 0.0 0.1 0.1 0.0 0.0 0.0 0.0 0.0 2.6 4.1 1.8 6.7 2.0 0.0 0.4 0.4 0.0 0.0 0.1 0.0 0.0 0.0 0.0 0.0 0.0 0.0 0.0 0.0 0.0 0.0 0.0 0.0 0.0 0.0 0.0 0.0 0.0 0.0 0.0 0.0 0.0 0.0
0.0 0.0 0.0 0.1 0.0 0.0 0.0 0.0 0.0 0.2 0.8 19.8 1.5 6.5 6.1 1.5 3.2 1.8 1.8 0.0 0.2 0.2 0.0 0.0 0.0 0.0 0.0 0.0 0.0 0.0 0.0 0.0 0.0 0.0 0.0 0.0 0.0 0.0 0.0 0.0 0.0 0.0 0.0 0.0
0.0 0.0 0.0 0.0 0.0 0.0 0.0 0.9 26.1 27.4 28.9 24.7 0.2 0.8 6.3 1.6 0.8 1.8 4.2 2.1 0.3 0.5 0.3 0.2 0.0 0.8 0.5 0.1 0.1 0.0 0.0 0.0 0.0 0.0 0.0 0.0 0.0 0.0 0.1 0.1 0.0 0.0 0.0 0.0
5.8 6.5 1.3 0.5 0.3 1.7 0.5 2.1 18.6 43.3 19.1 7.0 0.5 9.2 10.5 1.3 0.4 0.7 0.8 4.2 1.1 1.3 0.9 1.3 4.0 1.6 1.0 0.6 0.6 0.6 0.0 0.1 0.0 0.0 0.0 0.0 0.0 0.1 0.1 0.1 0.1 0.1 0.0 0.0
27.6 12.0 2.8 2.0 0.7 0.1 1.6 4.7 0.5 12.3 2.3 19.3 10.8 11.9 3.3 1.6 1.7 1.4 4.1 3.2 3.7 2.2 2.2 3.4 3.7 1.5 0.8 4.7 7.3 2.4 1.6 0.2 0.1 0.0 0.0 0.1 0.0 0.0 0.1 0.1 0.0 0.1 0.1 0.0
27.1 39.1 7.7 1.6 0.0 0.0 3.5 1.2 10.0 9.4 68.1 55.6 10.3 12.8 23.4 16.6 13.6 10.5 13.3 10.0 7.3 3.7 3.5 2.9 5.7 1.9 1.8 8.5 6.9 2.9 0.8 1.2 0.7 0.0 0.0 0.1 0.1 0.2 0.2 0.1 0.1 0.2 0.2 0.2
10.6 22.6 7.0 2.5 8.4 15.6 12.8 18.1 18.5 27.4 46.9 54.8 39.7 33.7 14.5 18.5 19.3 19.9 20.3 17.7 12.0 8.8 8.0 5.6 4.9 2.8 1.8 4.2 7.5 6.2 4.1 4.6 4.4 1.7 0.6 0.2 0.9 0.2 0.2 0.3 0.8 1.2 0.9 0.8
1.8 14.6 10.9 4.0 0.6 0.6 3.4 16.7 28.0 60.3 57.3 43.3 42.3 48.1 17.3 9.6 9.2 9.2 14.2 18.0 13.4 9.3 11.2 7.6 3.9 3.9 2.7 3.0 3.4 6.4 6.6 8.1 8.5 7.1 5.3 1.7 2.3 2.2 1.4 1.8 1.6 1.9 2.0 0.6
3.4 14.2 14.5 6.2 0.9 0.2 3.8 4.7 9.5 22.3 31.6 50.8 51.9 50.9 10.3 8.3 9.7 8.4 12.3 13.7 15.2 11.6 8.1 9.2 8.8 4.2 5.3 3.5 6.3 5.9 6.1 4.4 5.8 10.4 11.8 4.0 5.1 3.9 4.8 5.8 4.5 4.5 3.9 2.8
0.0 10.7 13.3 15.3 10.5 6.1 12.9 6.6 4.4 11.7 46.3 31.9 29.6 27.8 15.9 14.3 14.2 12.7 7.7 6.7 6.5 8.1 9.0 7.3 6.3 5.9 3.7 2.5 4.1 2.4 1.7 2.5 3.7 4.0 8.7 9.7 9.5 11.3 9.2 7.7 9.5 10.6 8.1 7.0
0.5 16.5 6.2 4.0 4.0 2.4 4.4 6.9 5.0 10.2 11.3 23.6 25.2 16.4 15.0 12.3 9.3 7.0 4.8 2.8 1.9 2.3 1.6 2.4 3.8 4.6 3.7 2.0 1.4 0.7 0.2 0.0 0.1 0.2 0.2 3.0 10.5 10.7 10.9 10.9 15.7 12.4 15.3 15.1
0.1 8.0 7.2 7.1 3.3 1.2 7.0 7.8 4.3 4.1 8.4 11.1 6.5 15.1 10.1 6.3 4.4 3.7 2.4 1.0 0.2 0.1 0.2 0.5 0.3 0.8 1.5 0.6 0.2 0.0 0.0 0.0 0.0 0.0 0.0 0.0 0.0 0.3 3.6 4.9 5.8 5.1 10.3 13.8
3.3 6.3 6.9 10.8 0.9 2.3 11.7 14.0 8.2 5.3 3.8 4.5 8.7 14.7 6.3 5.0 2.8 3.1 1.1 0.3 0.0 0.1 1.4 5.7 2.8 3.1 0.4 1.2 0.0 0.7 0.0 0.0 0.0 0.0 0.0 0.0 0.0 0.0 0.5 0.3 0.1 2.1 1.6 2.1
5.8 5.6 8.1 10.0 5.6 28.5 11.0 1.6 2.0 2.4 2.3 2.6 2.7 2.9 1.7 0.6 1.3 1.4 1.0 0.6 0.8 0.5 1.1 3.9 7.3 5.5 3.4 2.3 1.8 1.3 0.9 0.9 0.0 0.0 0.0 0.0 0.1 1.0 0.8 0.0 0.0 1.2 1.0 0.4
1.0 4.8 16.1 17.2 7.2 4.2 2.4 1.8 2.7 2.7 3.4 1.6 1.1 0.6 0.4 0.7 0.2 2.2 1.8 1.1 0.9 0.7 0.5 0.3 0.9 4.6 4.8 4.2 3.3 2.2 1.4 1.7 2.2 2.9 2.0 1.1 1.6 1.0 0.2 0.6 0.0 2.0 2.0 1.8
0.3 2.0 18.3 19.7 18.3 10.8 2.8 0.5 0.1 0.6 6.8 0.8 0.2 0.3 0.4 0.3 0.7 2.9 2.5 2.2 1.0 0.4 0.0 0.0 0.0 0.0 0.0 0.0 2.5 2.8 2.8 1.3 2.9 3.9 5.4 6.0 4.7 4.9 4.1 4.7 7.0 4.5 2.7 4.1
7.8 12.1 28.9 23.3 30.6 8.7 1.5 0.6 0.2 9.4 9.8 0.8 0.1 0.1 0.0 0.3 1.6 2.7 1.8 3.2 2.9 0.0 0.0 0.0 0.0 0.0 0.1 0.0 0.0 0.9 1.6 2.8 4.6 2.9 4.4 4.4 8.4 9.6 11.8 10.5 14.0 14.5 9.6 7.5
12.2 16.2 14.6 17.2 29.3 25.4 1.2 1.0 4.0 4.6 0.5 0.5 0.2 0.1 0.5 0.8 2.4 3.8 4.7 5.2 2.1 0.2 0.0 0.0 0.0 0.0 0.0 0.0 0.0 0.2 1.7 0.3 0.6 1.5 4.0 4.3 5.8 8.5 10.3 12.0 13.0 14.0 14.3 13.2
11.7 6.6 10.8 9.6 17.7 6.1 3.9 3.7 1.0 0.4 1.2 1.0 0.3 0.1 0.6 3.6 5.8 7.0 6.9 5.5 2.5 0.5 0.0 0.0 0.0 0.0 0.0 0.0 0.0 0.1 0.6 1.6 2.1 2.7 4.6 5.5 5.9 6.8 8.2 9.9 10.5 9.9 9.5 10.6
2.1 0.3 5.5 8.3 5.8 2.5 4.2 1.9 0.4 0.4 1.9 1.2 0.3 0.7 1.3 3.4 3.5 3.7 4.1 2.2 1.2 0.4 0.1 0.0 0.0 0.0 0.0 0.0 0.0 0.2 0.8 0.8 1.6 2.9 3.9 4.8 5.8 6.4 6.7 6.0 5.3 5.3 5.9 7.3
1.4 1.6 3.6 7.1 4.3 2.2 1.7 2.0 1.3 1.1 0.7 0.5 0.2 0.2 0.1 0.5 0.3 0.0 1.8 0.2 0.2 0.0 0.1 0.1 0.0 0.0 0.0 0.0 1.0 0.2 0.5 0.8 1.5 1.7 2.8 3.1 3.2 3.4 3.3 3.1 3.1 2.9 3.1 3.1
0.7 2.6 7.7 10.2 6.5 6.1 5.6 4.0 3.0 3.3 2.3 1.0 0.8 1.0 0.1 0.1 0.2 0.1 0.5 0.1 0.0 0.1 0.0 0.0 0.0 0.4 0.1 0.0 0.1 0.5 0.7 0.9 1.2 1.3 1.5 1.8 2.4 2.5 1.9 1.9 4.0 3.7 2.5 2.4